www.pogodaiklimat.ru

Погода и климат >> Архив погоды >> Иран >> Bushehr


ПОГОДА в Bushehr

  • Прогноз погоды в Bushehr
  • Монитор погоды в Bushehr
  • Климат города

АРХИВ ПОГОДЫ в Bushehr

Время (UTC), дата Ветер
(напр.,м/с)
 
Видим.   Явления Облачность Т
(С)
Тd
(С)
f
(%)
Тe
(С)
Тes
(С)
Комфортность P
(гПа)
Po
(гПа)
Тmin
(С)
Tmax
(С)
R
(мм)
R24
(мм)
S
(см)
12 15.11 СЗ 3 10 км ясно +27.1 1013.6 1012.6
15 15.11 СЗ 2 10 км ясно +23.9 +12.5 49 +26 +26 жарко 1014.4 1013.4 +27.6
18 15.11 штиль 0 10 км ясно +20.8 +13.7 64 +23 +23 комфорт 1015.3 1014.3
21 15.11 штиль 0 10 км ясно +19.1 +10.7 58 +20 +20 1015.0 1013.9
00 16.11 СВ 2 10 км ясно +18.0 +11.6 66 +19 +19 1014.6 1013.6
03 16.11 штиль 0 10 км ясно +16.4 +10.7 69 +16 +16 1015.5 1014.5 +16.4
06 16.11 штиль 0 10 км ясно +27.2 1017.2 1016.2
09 16.11 СЗ 2 10 км ясно +27.0 +13.8 44 +29 +38 жарко 1015.6 1014.6
12 16.11 СЗ 3 10 км ясно +27.5 1014.3 1013.3
15 16.11 С 1 10 км 1/0
[Ci fib]
+23.7 +16.0 62 +27 +27 жарко 1015.1 1014.1 +27.9
18 16.11 СВ 2 10 км 1/0
[Ci fib]
+20.3 +14.8 71 +23 +23 комфорт 1016.3 1015.3
21 16.11 СВ 1 10 км ясно +20.0 +13.5 66 +23 +23 комфорт 1016.2 1015.1
00 17.11 СВ 1 10 км ясно +19.0 +11.3 61 +21 +21 комфорт 1016.0 1015.0
03 17.11 СВ 2 7000 м мгла ясно +18.7 +7.8 49 +20 +20 1016.8 1015.8 +18.7
06 17.11 СВ 1 10 км ясно +26.6 1018.5 1017.5
09 17.11 СЗ 3 10 км ясно +27.1 +15.1 48 +30 +38 душно 1016.9 1015.9
12 17.11 СЗ 3 10 км ясно +27.7 1015.7 1014.7
15 17.11 СЗ 3 10 км ясно +25.0 +17.0 61 +29 +29 душно 1016.5 1015.5 +28.8
18 17.11 СВ 2 10 км ясно +21.9 +13.6 59 +25 +25 комфорт 1017.9 1016.9
21 17.11 СВ 2 10 км ясно +20.1 +12.3 61 +23 +23 комфорт 1017.9 1016.9
00 18.11 СВ 2 10 км ясно +19.3 +12.4 64 +21 +21 комфорт 1017.8 1016.8
03 18.11 штиль 0 10 км ясно +17.0 +11.0 68 +17 +17 1018.7 1017.7 +16.9
06 18.11 штиль 0 7000 м мгла ясно +24.4 1020.4 1019.4
12 18.11 СЗ 3 10 км ясно +27.4 1017.9 1016.9
15 18.11 С 1 10 км ясно +23.3 +14.3 57 +27 +27 душно 1018.7 1017.7 +27.6
18 18.11 СВ 2 10 км ясно +21.2 +13.5 61 +24 +24 комфорт 1020.0 1019.0
21 18.11 СВ 2 10 км ясно +20.8 +12.0 57 +24 +24 комфорт 1019.9 1018.7
00 19.11 СВ 2 10 км ясно +20.5 +11.4 56 +23 +23 комфорт 1019.4 1018.4
03 19.11 СВ 2 10 км ясно +20.0 +8.0 46 +22 +22 комфорт 1019.7 1018.7 +19.6
06 19.11 В 1 10 км 6/0
[Cs]
+26.3 1021.1 1020.1
09 19.11 ЮЗ 2 10 км 8/1 1200 м
[Sc Cs]
+28.8 +15.9 46 +32 +39 душно 1020.0 1019.0
12 19.11 Ю 2 10 км 9/1 1000 м
[Sc As trans]
+26.8 1018.7 1017.7
15 19.11 ЮЗ 3 10 км 10/1 1200 м
[Sc As op]
+25.7 +17.1 59 +30 +30 душно 1019.0 1018.0 +29.3
18 19.11 штиль 0 10 км 9/1 1200 м
[Sc As op]
+22.4 +16.3 68 +27 +27 душно 1019.6 1018.6
21 19.11 СВ 2 10 км 9/1 1200 м
[Sc As op]
+22.1 +15.1 65 +26 +26 душно 1019.1 1018.1
00 20.11 СВ 2 10 км 8/1 1200 м
[Sc As op]
+21.9 +14.8 64 +25 +25 комфорт 1018.4 1017.4
03 20.11 СВ 2 10 км 4/4 1200 м
[Sc]
+20.4 +13.0 62 +23 +23 комфорт 1018.9 1017.9 +20.4
06 20.11 СВ 2 10 км 4/0
[Ci fib]
+26.4 1019.7 1018.7
09 20.11 З 2 10 км 3/1 1050 м
[Sc Ci fib]
+27.9 +16.9 51 +32 +39 душно 1017.6 1016.6
12 20.11 СЗ 2 10 км 1/1 1000 м
[Sc Ci fib]
+28.0 1015.9 1014.9
15 20.11 штиль 0 10 км 10/1 1200 м
[Sc Cs]
+25.0 +17.7 64 +29 +29 душно 1016.8 1015.8 +30.0
18 20.11 В 4 10 км {гроза, дождь} 5/1 1200 м
[Sc Ac As]
+22.5 +17.3 72 +27 +27 душно 1017.0 1016.0 2
00 21.11 В 3 10 км 8/0
[Cs]
+21.9 +16.9 73 +26 +26 душно 1015.6 1014.6
03 21.11 В 3 10 км 10/0
[Cs]
+21.3 +16.3 73 +25 +25 комфорт 1015.7 1014.7 +21.0
06 21.11 ЮВ 2 10 км 6/0
[Ac und Cs]
+27.9 +16.9 51 1016.0 1015.0
09 21.11 В 3 10 км 10/6 1050 м
[Cb calv As op]
+26.0 +17.5 59 +30 +31 душно 1013.8 1012.8
12 21.11 С 4 10 км в посл. час дождь {гроза} 10/6 600 м
[Cb calv As op]
+18.0 +16.7 92 +18 +18 1014.4 1013.4 8
15 21.11 В 5 10 км 10/6 900 м
[Cb cap As op]
+19.2 +15.3 78 +20 +20 1012.7 1011.7 +28.0
18 21.11 З 6 5000 м сильная гроза, ливневой дождь 10/6 900 м
[Cb cap As op]
+18.3 +16.9 92 +18 +18 1015.6 1014.6 15
21 21.11 В 4 7000 м в посл. час гроза {ливн. осадки} 10/6 900 м
[Cb cap As op]
+17.1 +16.4 96 +17 +17 1013.2 1012.2
03 22.11 В 4 7000 м гроза без осадков {дождь} 10/10 900 м
[Cb cap As op]
+18.1 +15.9 87 +18 +18 1012.1 1011.1 +16.9
06 22.11 В 5 10 км в посл. час гроза {дождь} 8/5 900 м
[Cb cap Ac As]
+17.3 +16.4 94 +17 +17 1014.6 1013.6

 

Местоположение метеостанции Bushehr (Иран): широта 28.95 долгота 50.85 высота над уровнем моря 8 м.

В архиве по умолчанию представлена погода в Bushehr за последнюю неделю. Архивные данные за месяц целиком и за предыдущие месяцы, начиная с января 2011 года, Вы можете получить, выбрав интересующий диапазон дат из раскрывающегося списка и нажав кнопку "Ввод!".

Внимание! Время в таблицах - всемирное. Для получения местного времени необходимо прибавить поправку, которая в Bushehr равна 3.5 ч.

Смотрите также архив погоды в соседних городах и на ближайших метеорологических станциях:

Погода в Bushehr Airport (Иран) (4 км)
Погода в Khark (Иран) (62 км)
Погода в Bandar Deyr (Иран) (163 км)
Погода в Gach Saran (Иран) (165 км)
Погода в Shiraz (Иран) (175 км)
Погода в Yasuj (Иран) (204 км)
Погода в Nuwasib (Кувейт) (211 км)
Погода в Umm-Al-Maradim (Кувейт) (216 км)
Погода в Omidieh (Иран) (232 км)
Погода в Juluiah Port (Кувейт) (250 км)

Пояснения к столбцам:

Ветер - указаны скорость ветра в м/с - средняя за 10 мин, порывы в срок и между сроками (в фигурных скобках) и направление, откуда дует ветер: С - северный, СВ - северо-восточный, В - восточный, ЮВ - юго-восточный, Ю - южный, ЮЗ - юго-западный, З - западный, СЗ - северо-западный.
Видимость - горизонтальная дальность видимости в метрах или километрах. При видимости от 1 до 10 км при отсутствии осадков обычно наблюдается дымка, при ухудшении видимости до 1 км и менее - туман. В сухую погоду видимость может ухудшаться дымом, пылью или мглою.
Явления - указаны атмосферные явления, наблюдавшиеся в срок или в последний час перед сроком; фигурными скобками обозначены явления, наблюдавшиеся между сроками (за 1-3 часа до срока); квадратными скобками обозначены град или гололедные отложения с указанием их диаметра в мм.
Облачность - указаны через наклонную черту общая и нижняя облачность в баллах и высота нижней границы облаков в метрах; квадратными скобками обозначены формы облаков: Ci - перистые, Cs - перисто-слоистые, Cc - перисто-кучевые, Ac - высококучевые, As - высокослоистые, Sc - слоисто-кучевые, Ns - слоисто-дождевые, Cu - кучевые, Cb - кучево-дождевые. Подробнее классификацию облаков см. в Атласе облаков (PDF).
T - Температура воздуха - температура, измеренная на высоте 2 м над землей.
Td - Температура точки росы - температура, при понижении до которой содержащийся в воздухе водяной пар достигнет насыщения.
f - Относительная влажность воздуха - влажноcть воздуха, измеренная на высоте 2 м над землей.
Te - Эффективная температура - температура, которую ощущает одетый по сезону человек в тени. Характеристика душности погоды. При расчете учитывается влияние влажности воздуха и скорости ветра на теплоощущения человека.
Tes - Эффективная температура на солнце - температура, которую ощущает человек, с поправкой на солнечный нагрев. Характеристика знойности погоды. Зависит от высоты солнца над горизонтом, облачности и скорости ветра. Ночью, в пасмурную погоду, а также при ветре 12 м/с и более поправка равна нулю.
P - Атмосферное давление - приведенное к уровню моря атмосферное давление.
Po - Атмосферное давление - измеренное на уровне метеостанции атмосферное давление.
Tmin - Минимальная температура - минимум температуры воздуха на высоте 2 м над землей.
Tmax - Максимальная температура - максимум температуры воздуха на высоте 2 м над землей.
R - Количество осадков - Количество выпавших осадков за период времени, мм. При наведении курсора мыши на число - период времени, за который выпало указанное количество осадков.
R24 - Количество осадков - Количество выпавших осадков за 24 часа, мм.
S - Снежный покров - Высота снежного покрова, см. При наведении курсора мыши на число - состояние снежного покрова и степень покрытия местности в баллах.